| time (UTC) | temp F | wind direction | speed MPH | gust MPH | rain 1hr in | rain 24hr in | rain mn in | humidity % | barometer mb |
| 20260905224559 | 72 | 19 | 0.0 | 0.0 | 0.00 | 0.00 | 0.00 | 68 | 1009.5 |
| 20260905223057 | 73 | 19 | 0.0 | 0.0 | 0.00 | 0.00 | 0.00 | 67 | 1009.4 |
| 20260905221600 | 74 | 19 | 0.0 | 0.0 | 0.00 | 0.00 | 0.00 | 66 | 1009.3 |
| 20260905220058 | 74 | 19 | 0.0 | 0.0 | 0.00 | 0.00 | 0.00 | 64 | 1009.3 |
| 20260905214554 | 76 | 19 | 0.0 | 3.0 | 0.00 | 0.00 | 0.00 | 63 | 1009.1 |
| 20260905213054 | 76 | 15 | 0.0 | 2.0 | 0.00 | 0.00 | 0.00 | 61 | 1009.2 |
| 20260905211553 | 78 | 15 | 1.0 | 3.0 | 0.00 | 0.00 | 0.00 | 59 | 1009.1 |
| 20260905210107 | 79 | 23 | 1.0 | 3.0 | 0.00 | 0.00 | 0.00 | 60 | 1009.0 |
| 20260905204553 | 78 | 84 | 0.0 | 2.0 | 0.00 | 0.00 | 0.00 | 59 | 1008.9 |
| 20260905203052 | 79 | 80 | 1.0 | 5.0 | 0.00 | 0.00 | 0.00 | 58 | 1008.8 |
| 20260905201551 | 79 | 90 | 0.0 | 3.0 | 0.00 | 0.00 | 0.00 | 61 | 1008.8 |
| 20260905200113 | 78 | 59 | 1.0 | 4.0 | 0.00 | 0.00 | 0.00 | 59 | 1008.9 |
| 20260905194552 | 77 | 57 | 1.0 | 4.0 | 0.00 | 0.00 | 0.00 | 61 | 1008.7 |
| 20260905193049 | 77 | 277 | 1.0 | 3.0 | 0.00 | 0.00 | 0.00 | 61 | 1008.9 |
| 20260905191549 | 79 | 219 | 1.0 | 3.0 | 0.00 | 0.00 | 0.00 | 59 | 1008.9 |
| 20260905190047 | 79 | 283 | 1.0 | 3.0 | 0.00 | 0.00 | 0.00 | 60 | 1008.9 |
| 20260905184551 | 78 | 11 | 0.0 | 4.0 | 0.00 | 0.00 | 0.00 | 62 | 1009.0 |
| 20260905183044 | 78 | 58 | 0.0 | 3.0 | 0.00 | 0.00 | 0.00 | 63 | 1009.1 |
| 20260905181545 | 77 | 25 | 1.0 | 4.0 | 0.00 | 0.00 | 0.00 | 66 | 1009.2 |
| 20260905180043 | 77 | 225 | 0.0 | 0.0 | 0.00 | 0.00 | 0.00 | 67 | 1009.2 |
| 20260905174539 | 77 | 36 | 0.0 | 0.0 | 0.00 | 0.00 | 0.00 | 66 | 1009.4 |
| 20260905173045 | 76 | 78 | 0.0 | 4.0 | 0.00 | 0.00 | 0.00 | 67 | 1009.4 |
| 20260905171539 | 75 | 235 | 1.0 | 4.0 | 0.00 | 0.00 | 0.00 | 65 | 1009.6 |
| 20260905170037 | 76 | 15 | 1.0 | 3.0 | 0.00 | 0.00 | 0.00 | 65 | 1009.5 |
| 20260905164537 | 77 | 349 | 1.0 | 5.0 | 0.00 | 0.00 | 0.00 | 66 | 1009.7 |
| 20260905163033 | 76 | 187 | 1.0 | 4.0 | 0.00 | 0.00 | 0.00 | 69 | 1009.6 |
| 20260905161530 | 75 | 182 | 1.0 | 3.0 | 0.00 | 0.00 | 0.00 | 67 | 1009.5 |
| 20260905160029 | 75 | 138 | 1.0 | 5.0 | 0.00 | 0.00 | 0.00 | 67 | 1009.6 |
| 20260905154528 | 75 | 223 | 2.0 | 5.0 | 0.00 | 0.00 | 0.00 | 67 | 1009.5 |
| 20260905153029 | 74 | 360 | 2.0 | 5.0 | 0.00 | 0.00 | 0.00 | 71 | 1009.6 |
| 20260905151518 | 73 | 11 | 1.0 | 7.0 | 0.00 | 0.00 | 0.00 | 70 | 1009.6 |
| 20260905150020 | 71 | 192 | 2.0 | 5.0 | 0.00 | 0.00 | 0.00 | 73 | 1009.7 |
| 20260905144514 | 70 | 118 | 0.0 | 3.0 | 0.00 | 0.00 | 0.00 | 74 | 1009.5 |
| 20260905143009 | 71 | 342 | 1.0 | 8.0 | 0.00 | 0.00 | 0.00 | 78 | 1009.5 |
| 20260905141505 | 69 | 46 | 0.0 | 3.0 | 0.00 | 0.00 | 0.00 | 78 | 1009.4 |
| 20260905140004 | 69 | 42 | 1.0 | 4.0 | 0.00 | 0.00 | 0.00 | 79 | 1009.4 |
| 20260905134504 | 68 | 65 | 0.0 | 3.0 | 0.00 | 0.00 | 0.00 | 82 | 1009.4 |
| 20260905133002 | 67 | 237 | 0.0 | 3.0 | 0.00 | 0.00 | 0.00 | 84 | 1009.4 |
| 20260905131502 | 67 | 237 | 1.0 | 3.0 | 0.00 | 0.00 | 0.00 | 85 | 1009.5 |
| 20260905130000 | 66 | 236 | 0.0 | 0.0 | 0.00 | 0.00 | 0.00 | 85 | 1009.6 |
| 20260905124600 | 66 | 236 | 0.0 | 2.0 | 0.00 | 0.00 | 0.00 | 84 | 1009.8 |
| 20260905123112 | 65 | 235 | 0.0 | 0.0 | 0.00 | 0.00 | 0.00 | 84 | 1009.7 |
| 20260905121559 | 65 | 235 | 0.0 | 0.0 | 0.00 | 0.00 | 0.00 | 84 | 1009.8 |
| 20260905120056 | 65 | 235 | 0.0 | 2.0 | 0.00 | 0.00 | 0.00 | 84 | 1009.8 |
| 20260905114553 | 64 | 235 | 0.0 | 0.0 | 0.00 | 0.00 | 0.00 | 84 | 1009.7 |
| 20260905113052 | 64 | 235 | 0.0 | 0.0 | 0.00 | 0.00 | 0.00 | 85 | 1009.4 |
| 20260905111557 | 64 | 235 | 0.0 | 0.0 | 0.00 | 0.00 | 0.00 | 85 | 1009.2 |
| 20260905110050 | 63 | 235 | 0.0 | 0.0 | 0.00 | 0.00 | 0.00 | 86 | 1008.9 |
| 20260905104548 | 63 | 235 | 0.0 | 0.0 | 0.00 | 0.00 | 0.00 | 86 | 1008.9 |
| 20260905103056 | 63 | 235 | 0.0 | 0.0 | 0.00 | 0.00 | 0.00 | 86 | 1008.9 |
| 20260905101547 | 63 | 235 | 0.0 | 0.0 | 0.00 | 0.00 | 0.00 | 86 | 1008.9 |
| 20260905100055 | 64 | 235 | 0.0 | 0.0 | 0.00 | 0.00 | 0.00 | 85 | 1008.6 |
| 20260905094543 | 64 | 235 | 0.0 | 0.0 | 0.00 | 0.00 | 0.00 | 84 | 1008.6 |
| 20260905093042 | 64 | 235 | 0.0 | 0.0 | 0.00 | 0.00 | 0.00 | 84 | 1008.5 |
| 20260905091546 | 64 | 235 | 0.0 | 0.0 | 0.00 | 0.00 | 0.00 | 83 | 1008.5 |
| 20260905090040 | 65 | 235 | 0.0 | 0.0 | 0.00 | 0.00 | 0.00 | 83 | 1008.5 |
| 20260905084538 | 65 | 235 | 0.0 | 0.0 | 0.00 | 0.00 | 0.00 | 83 | 1008.5 |
| 20260905083036 | 65 | 235 | 0.0 | 0.0 | 0.00 | 0.00 | 0.00 | 83 | 1008.5 |
| 20260905081635 | 66 | 235 | 0.0 | 0.0 | 0.00 | 0.00 | 0.00 | 83 | 1008.5 |
| 20260905080057 | 66 | 235 | 0.0 | 0.0 | 0.00 | 0.00 | 0.00 | 82 | 1008.5 |
| 20260905074533 | 66 | 235 | 0.0 | 0.0 | 0.00 | 0.02 | 0.00 | 82 | 1008.6 |
| 20260905073032 | 67 | 235 | 0.0 | 0.0 | 0.00 | 0.02 | 0.00 | 82 | 1008.4 |
| 20260905071531 | 67 | 229 | 0.0 | 0.0 | 0.00 | 0.02 | 0.00 | 82 | 1008.5 |
| 20260905070037 | 67 | 212 | 0.0 | 0.0 | 0.00 | 0.02 | 0.00 | 81 | 1008.5 |
| 20260905064626 | 67 | 212 | 0.0 | 0.0 | 0.00 | 0.03 | 0.00 | 81 | 1008.6 |
| 20260905063023 | 68 | 212 | 0.0 | 2.0 | 0.00 | 0.03 | 0.00 | 81 | 1008.8 |
| 20260905061525 | 68 | 212 | 0.0 | 0.0 | 0.00 | 0.03 | 0.00 | 80 | 1008.9 |
| 20260905060037 | 68 | 212 | 0.0 | 0.0 | 0.00 | 0.03 | 0.00 | 80 | 1009.0 |
| 20260905054517 | 68 | 212 | 0.0 | 0.0 | 0.00 | 0.20 | 0.00 | 80 | 1009.2 |
| 20260905053014 | 69 | 212 | 0.0 | 0.0 | 0.00 | 0.20 | 0.00 | 81 | 1009.4 |
| 20260905051519 | 69 | 212 | 0.0 | 0.0 | 0.00 | 0.20 | 0.00 | 80 | 1009.4 |
| 20260905050017 | 69 | 212 | 0.0 | 0.0 | 0.00 | 0.20 | 0.00 | 82 | 1009.5 |
| 20260905044515 | 69 | 212 | 0.0 | 0.0 | 0.00 | 0.23 | 0.00 | 80 | 1009.6 |
| 20260905043008 | 69 | 212 | 0.0 | 0.0 | 0.00 | 0.23 | 0.00 | 79 | 1009.7 |
| 20260905041506 | 70 | 212 | 0.0 | 0.0 | 0.00 | 0.23 | 0.00 | 80 | 1009.6 |
| 20260905040005 | 70 | 212 | 0.0 | 0.0 | 0.00 | 0.23 | 0.00 | 79 | 1009.7 |
| 20260905034502 | 70 | 212 | 0.0 | 0.0 | 0.00 | 0.23 | 0.23 | 78 | 1009.8 |
| 20260905033003 | 70 | 212 | 0.0 | 0.0 | 0.00 | 0.23 | 0.23 | 76 | 1009.8 |
| 20260905031502 | 70 | 212 | 0.0 | 0.0 | 0.00 | 0.23 | 0.23 | 77 | 1009.8 |
| 20260905030003 | 70 | 212 | 0.0 | 0.0 | 0.00 | 0.23 | 0.23 | 77 | 1009.7 |
| 20260905024600 | 70 | 212 | 0.0 | 0.0 | 0.00 | 0.23 | 0.23 | 77 | 1009.6 |
| 20260905023100 | 70 | 212 | 0.0 | 0.0 | 0.00 | 0.23 | 0.23 | 77 | 1009.6 |
| 20260905021559 | 70 | 212 | 0.0 | 0.0 | 0.00 | 0.23 | 0.23 | 77 | 1009.6 |
| 20260905020059 | 70 | 212 | 0.0 | 0.0 | 0.00 | 0.23 | 0.23 | 78 | 1009.7 |
| 20260905014558 | 71 | 212 | 0.0 | 0.0 | 0.00 | 0.23 | 0.23 | 78 | 1009.6 |
| 20260905013057 | 71 | 212 | 0.0 | 0.0 | 0.00 | 0.23 | 0.23 | 77 | 1009.6 |
| 20260905011616 | 72 | 212 | 0.0 | 0.0 | 0.00 | 0.23 | 0.23 | 77 | 1009.7 |
| 20260905010056 | 72 | 212 | 0.0 | 0.0 | 0.00 | 0.23 | 0.23 | 77 | 1009.7 |
| 20260905004555 | 72 | 212 | 0.0 | 0.0 | 0.00 | 0.23 | 0.23 | 76 | 1009.7 |
| 20260905003058 | 72 | 212 | 0.0 | 0.0 | 0.00 | 0.23 | 0.23 | 76 | 1009.6 |
| 20260905001607 | 73 | 212 | 0.0 | 0.0 | 0.00 | 0.23 | 0.23 | 74 | 1009.5 |
| 20260905000055 | 73 | 212 | 0.0 | 0.0 | 0.00 | 0.23 | 0.23 | 74 | 1009.3 |
| 20260904234555 | 74 | 212 | 0.0 | 0.0 | 0.00 | 0.23 | 0.23 | 73 | 1009.3 |
| 20260904233105 | 75 | 212 | 0.0 | 0.0 | 0.00 | 0.23 | 0.23 | 72 | 1009.1 |
| 20260904231554 | 75 | 212 | 0.0 | 0.0 | 0.00 | 0.23 | 0.23 | 72 | 1009.1 |